TimeMDT,TemperatureF,Dew PointF,Humidity,Sea Level PressureIn,VisibilityMPH,Wind Direction,Wind SpeedMPH,Gust SpeedMPH,PrecipitationIn,Events,Conditions,WindDirDegrees,DateUTC
12:56 AM,44.1,39.9,85,30.18,10.0,South,3.5,-,N/A,,Clear,190,2013-05-21 06:56:00
1:56 AM,41.0,37.9,89,30.17,10.0,SSE,4.6,-,N/A,,Clear,160,2013-05-21 07:56:00
2:56 AM,39.9,37.0,89,30.16,10.0,SE,5.8,-,N/A,,Clear,140,2013-05-21 08:56:00
3:56 AM,39.0,36.0,89,30.13,10.0,ESE,4.6,-,N/A,,Clear,110,2013-05-21 09:56:00
4:56 AM,39.9,36.0,86,30.14,10.0,ENE,4.6,-,N/A,,Clear,70,2013-05-21 10:56:00
5:56 AM,39.0,35.1,86,30.14,10.0,East,4.6,-,N/A,,Clear,100,2013-05-21 11:56:00
6:56 AM,44.1,39.0,82,30.14,10.0,South,3.5,-,N/A,,Clear,170,2013-05-21 12:56:00
7:56 AM,48.0,42.1,80,30.12,10.0,Calm,Calm,-,N/A,,Clear,0,2013-05-21 13:56:00
8:56 AM,53.1,44.1,71,30.12,10.0,Calm,Calm,-,N/A,,Clear,0,2013-05-21 14:56:00
9:56 AM,57.9,45.0,62,30.08,10.0,NE,5.8,-,N/A,,Clear,40,2013-05-21 15:56:00
10:56 AM,60.1,45.0,57,30.05,10.0,NNE,9.2,-,N/A,,Clear,20,2013-05-21 16:56:00
11:56 AM,66.0,34.0,30,30.03,10.0,East,12.7,19.6,N/A,,Clear,90,2013-05-21 17:56:00
12:56 PM,69.1,30.0,23,29.98,10.0,ENE,18.4,23.0,N/A,,Clear,70,2013-05-21 18:56:00
1:56 PM,70.0,28.0,21,29.96,10.0,ENE,17.3,28.8,N/A,,Clear,70,2013-05-21 19:56:00
2:56 PM,72.0,28.9,20,29.93,10.0,East,16.1,24.2,N/A,,Clear,90,2013-05-21 20:56:00
3:56 PM,72.0,28.9,20,29.91,10.0,East,23.0,31.1,N/A,,Clear,100,2013-05-21 21:56:00
4:56 PM,72.0,30.0,21,29.88,10.0,East,24.2,31.1,N/A,,Clear,90,2013-05-21 22:56:00
5:56 PM,68.0,30.0,24,29.88,10.0,East,21.9,29.9,N/A,,Clear,80,2013-05-21 23:56:00
6:56 PM,66.9,32.0,27,29.85,10.0,East,18.4,31.1,N/A,,Clear,80,2013-05-22 00:56:00
7:56 PM,64.0,32.0,30,29.86,10.0,ENE,16.1,27.6,N/A,,Clear,70,2013-05-22 01:56:00
8:56 PM,60.1,28.0,30,29.86,10.0,East,24.2,34.5,N/A,,Clear,80,2013-05-22 02:56:00
9:56 PM,57.9,30.0,35,29.86,10.0,East,21.9,34.5,N/A,,Clear,90,2013-05-22 03:56:00
10:56 PM,55.9,30.0,37,29.86,10.0,East,26.5,36.8,N/A,,Clear,100,2013-05-22 04:56:00
11:56 PM,55.0,36.0,49,29.84,10.0,ESE,26.5,35.7,N/A,,Partly Cloudy,110,2013-05-22 05:56:00